Regional Weather Roundup
Issued by NWS

Home | Current Version | Previous Version | Text Only | Print | Product List | Glossary Off
Versions: 1 2 3 4 5 6 7 8 9 10 11 12 13 14 15 16 17 18 19 20 21 22 23 24 25 26 27 28 29 30 31 32 33 34 35 36 37 38 39 40 41 42 43 44 45 46 47 48 49 50

000
ASUS45 KABQ 300201
RWRNM
WEATHER ROUNDUP FOR NEW MEXICO
NATIONAL WEATHER SERVICE ALBUQUERQUE NM
800 PM MDT FRI AUG 29 2014

NOTE: "FAIR" MEANS FEW OR NO CLOUDS BELOW 12,000 FEET AGL WITH NO
       SIGNIFICANT WEATHER OR OBSTRUCTIONS TO VISION.

      THIS PRODUCT IS RELEASED AS TWO VERSIONS.  ONE VERSION NEAR
      THE TOP OF THE HOUR CONTAINING PRELIMINARY DATA FROM ALBUQUERQUE
      AND OTHER STATIONS.  A FINAL VERSION WITH ADDITIONAL DATA IS
      ISSUED ABOUT 10 MINUTES AFTER THE HOUR.

NMZ501-503-504-510>518-300300-
NORTHWEST PLATEAU/NORTHCENTRAL MOUNTAINS

CITY           SKY/WX    TMP DP  RH WIND       PRES   REMARKS
FARMINGTON     CLEAR     77  38  24 W10       30.07S
LOS ALAMOS     CLEAR     71  32  23 CALM      30.23R
SANTA FE       CLEAR     72  36  26 SE3       30.15S
ANGEL FIRE     FAIR      55  36  49 CALM      30.32R

$$
NMZ402-403-502-505>509-300300-
WESTCENTRAL MOUNTAINS/SOUTHWEST MOUNTAINS

CITY           SKY/WX    TMP DP  RH WIND       PRES   REMARKS
GALLUP         CLEAR     75  32  20 NE10      30.16S
SILVER CITY    PTCLDY    82  37  20 SW5       30.09R

$$
NMZ407-409-411-412-300300-
SOUTHERN DESERTS

CITY           SKY/WX    TMP DP  RH WIND       PRES   REMARKS
LORDSBURG      FAIR      84  41  21 W7        29.98S
DEMING         CLEAR     86  43  22 S5        29.98R
LAS CRUCES     CLEAR     85  39  19 SE5       30.01S
HOLLOMAN AFB   CLEAR     85  44  24 W5        29.97R
ALAMOGORDO     CLEAR     82  41  23 W6        30.00R
T OR C         CLEAR     81  43  26 NE6       30.03R

$$
NMZ519>523-300300-
CENTRAL VALLEYS/CENTRAL HIGHLANDS

CITY           SKY/WX    TMP DP  RH WIND       PRES   REMARKS
ALBUQUERQUE    PTCLDY    78  40  25 SE8       30.08S
DOUBLE EAGLE   CLEAR     75  39  27 VRB5      30.12S
CLINES CORNERS CLEAR     64  43  46 SW8       30.22R
BELEN          FAIR      76  40  27 SE5       30.07S
SOCORRO        FAIR      76  50  39 SW5       30.04S

$$
NMZ524>526-539-540-300300-
SOUTHCENTRAL MOUNTAINS

CITY           SKY/WX    TMP DP  RH WIND       PRES   REMARKS
RUIDOSO        NOT AVBL

$$
NMZ527>531-300300-
NORTHEAST HIGHLANDS/NORTHEAST PLAINS

CITY           SKY/WX    TMP DP  RH WIND       PRES   REMARKS
LAS VEGAS      PTCLDY    65  42  43 S8        30.21R
RATON          PTCLDY    70  36  28 N9        30.16R
CLAYTON        CLEAR     72  51  47 E6        30.09R

$$
NMZ532>537-300300-
EASTCENTRAL PLAINS

CITY           SKY/WX    TMP DP  RH WIND       PRES   REMARKS
TUCUMCARI      CLEAR     79  38  22 S6        30.00R
CANNON AFB     CLEAR     78  39  24 N6        30.04R
CLOVIS AIRPORT   N/A     75  36  23 NE5       30.06R

$$
NMZ028-029-538-300300-
SOUTHEAST PLAINS

CITY           SKY/WX    TMP DP  RH WIND       PRES   REMARKS
ROSWELL        CLEAR     84  48  28 S3        29.98R
CARLSBAD       CLEAR     86  46  24 NW7       29.93R
HOBBS          PTCLDY    81  55  41 CALM      30.00R


$$


USA.gov is the U.S. government's official web portal to all federal, state and local government web resources and services.